| time (UTC) | temp F | wind direction | speed MPH | gust MPH | rain 1hr in | rain 24hr in | rain mn in | humidity % | barometer mb |
| 20260504080736 | 66 | 308 | 3.0 | 8.0 | 0.00 | 0.33 | 0.00 | 26 | 1013.7 |
| 20260504070338 | 68 | 269 | 4.0 | 11.0 | 0.00 | 0.35 | 0.00 | 23 | 1013.0 |
| 20260504025311 | 68 | 250 | 7.0 | 19.0 | 0.00 | 0.43 | 0.00 | 36 | 1011.7 |
| 20260504024026 | 68 | 244 | 7.0 | 21.0 | 0.00 | 0.43 | 0.00 | 38 | 1011.7 |
| 20260504022548 | 68 | 233 | 8.0 | 19.0 | 0.00 | 0.43 | 0.00 | 39 | 1011.9 |
| 20260504021151 | 66 | 245 | 8.0 | 23.0 | 0.00 | 0.43 | 0.00 | 42 | 1011.9 |
| 20260504015815 | 67 | 239 | 8.0 | 25.0 | 0.00 | 0.43 | 0.00 | 41 | 1011.9 |
| 20260504014443 | 67 | 239 | 8.0 | 18.0 | 0.00 | 0.43 | 0.00 | 42 | 1011.8 |
| 20260504013021 | 65 | 248 | 9.0 | 24.0 | 0.00 | 0.43 | 0.00 | 45 | 1011.9 |
| 20260504011704 | 65 | 234 | 8.0 | 25.0 | 0.00 | 0.43 | 0.00 | 45 | 1012.0 |
| 20260504010415 | 65 | 257 | 9.0 | 21.0 | 0.00 | 0.43 | 0.00 | 44 | 1011.6 |
| 20260504005204 | 65 | 245 | 9.0 | 24.0 | 0.00 | 0.43 | 0.00 | 46 | 1011.7 |
| 20260504003849 | 65 | 239 | 10.0 | 21.0 | 0.00 | 0.43 | 0.00 | 46 | 1011.7 |
| 20260504002401 | 65 | 244 | 12.0 | 22.0 | 0.00 | 0.43 | 0.00 | 49 | 1011.5 |
| 20260504001023 | 65 | 261 | 6.0 | 21.0 | 0.00 | 0.43 | 0.00 | 50 | 1011.3 |
| 20260503235745 | 65 | 238 | 8.0 | 18.0 | 0.00 | 0.43 | 0.00 | 50 | 1011.1 |
| 20260503234429 | 65 | 234 | 8.0 | 21.0 | 0.00 | 0.43 | 0.00 | 49 | 1010.9 |
| 20260503232931 | 64 | 255 | 7.0 | 17.0 | 0.00 | 0.43 | 0.00 | 52 | 1010.6 |
| 20260503231529 | 64 | 252 | 7.0 | 22.0 | 0.00 | 0.43 | 0.00 | 52 | 1010.5 |
| 20260503230250 | 64 | 270 | 6.0 | 15.0 | 0.00 | 0.43 | 0.00 | 55 | 1010.5 |
| 20260503224805 | 63 | 227 | 5.0 | 11.0 | 0.00 | 0.43 | 0.00 | 58 | 1010.3 |
| 20260503223436 | 62 | 242 | 4.0 | 10.0 | 0.00 | 0.43 | 0.00 | 60 | 1009.9 |
| 20260503222216 | 62 | 270 | 5.0 | 11.0 | 0.00 | 0.43 | 0.00 | 61 | 1009.8 |
| 20260503220716 | 61 | 243 | 3.0 | 8.0 | 0.00 | 0.43 | 0.00 | 64 | 1009.5 |
| 20260503215436 | 62 | 240 | 3.0 | 4.0 | 0.00 | 0.43 | 0.00 | 64 | 1009.3 |
| 20260503214006 | 61 | 251 | 3.0 | 7.0 | 0.00 | 0.43 | 0.00 | 67 | 1009.2 |
| 20260503212610 | 60 | 248 | 2.0 | 4.0 | 0.00 | 0.43 | 0.00 | 68 | 1009.0 |
| 20260503211236 | 59 | 248 | 2.0 | 4.0 | 0.00 | 0.43 | 0.00 | 69 | 1008.8 |
| 20260503205816 | 59 | 239 | 3.0 | 7.0 | 0.00 | 0.43 | 0.00 | 70 | 1008.5 |
| 20260503204619 | 59 | 254 | 4.0 | 8.0 | 0.00 | 0.43 | 0.00 | 71 | 1008.4 |
| 20260503203156 | 59 | 262 | 4.0 | 8.0 | 0.00 | 0.43 | 0.00 | 72 | 1008.0 |
| 20260503201831 | 59 | 243 | 5.0 | 13.0 | 0.00 | 0.43 | 0.00 | 71 | 1008.1 |
| 20260503200546 | 59 | 253 | 5.0 | 11.0 | 0.00 | 0.43 | 0.00 | 72 | 1008.1 |
| 20260503195206 | 60 | 251 | 4.0 | 10.0 | 0.00 | 0.43 | 0.00 | 72 | 1007.6 |
| 20260503193740 | 60 | 258 | 3.0 | 8.0 | 0.00 | 0.43 | 0.00 | 71 | 1007.3 |
| 20260503192536 | 60 | 251 | 3.0 | 13.0 | 0.00 | 0.43 | 0.00 | 71 | 1007.7 |
| 20260503191326 | 60 | 243 | 6.0 | 14.0 | 0.00 | 0.43 | 0.00 | 70 | 1007.4 |
| 20260503190002 | 60 | 247 | 3.0 | 8.0 | 0.00 | 0.43 | 0.00 | 70 | 1007.4 |
| 20260503184606 | 60 | 233 | 4.0 | 14.0 | 0.00 | 0.43 | 0.00 | 70 | 1007.5 |
| 20260503183106 | 60 | 246 | 4.0 | 15.0 | 0.00 | 0.43 | 0.00 | 70 | 1007.4 |
| 20260503181726 | 60 | 259 | 5.0 | 14.0 | 0.00 | 0.43 | 0.00 | 71 | 1007.3 |
| 20260503180332 | 60 | 260 | 6.0 | 11.0 | 0.00 | 0.43 | 0.00 | 71 | 1007.1 |
| 20260503175041 | 60 | 256 | 3.0 | 10.0 | 0.00 | 0.43 | 0.00 | 72 | 1007.1 |
| 20260503173751 | 60 | 254 | 5.0 | 9.0 | 0.00 | 0.43 | 0.00 | 73 | 1007.2 |
| 20260503172429 | 60 | 257 | 4.0 | 14.0 | 0.00 | 0.43 | 0.00 | 73 | 1007.0 |
| 20260503171140 | 60 | 255 | 5.0 | 14.0 | 0.00 | 0.43 | 0.00 | 74 | 1007.0 |
| 20260503131101 | 64 | 246 | 6.0 | 13.0 | 0.00 | 0.43 | 0.00 | 83 | 1005.4 |